Regional Weather Roundup
Issued by NWS

Home | Current Version | Previous Version | Graphics & Text | Print | Product List | Glossary On
Versions: 1 2 3 4 5 6 7 8 9 10 11 12 13 14 15 16 17 18 19 20 21 22 23 24 25 26 27 28 29 30 31 32 33 34 35 36 37 38 39 40 41 42 43 44 45 46 47 48 49 50
000
ASUS43 KDMX 110708
RWRIA

WEATHER ROUNDUP FOR IOWA
NATIONAL WEATHER SERVICE DES MOINES IA
100 AM CST THU FEB 11 2016

NOTE: "FAIR" INDICATES FEW OR NO CLOUDS BELOW 12,000 FEET WITH NO
SIGNIFICANT WEATHER AND/OR OBSTRUCTIONS TO VISIBILITY.

* - THESE STATIONS ARE NOT NWS STATIONS...THUS NOT UNDER NWS
QUALITY CONTROL.  THEY ALSO DO NOT REPORT WEATHER SUCH
AS PRECIPITATION OR FOG.

IAZ001>003-012>014-020>022-031>034-043>046-110800-
   NORTHWEST IOWA

CITY           SKY/WX    TMP DP  RH WIND       PRES   REMARKS
CARROLL *      CLOUDY    10   5  79 CALM      30.22S
CHEROKEE *     CLOUDY    14  10  85 NE6       30.25R WCI   5
DENISON *      MOCLDY    12   7  79 E6        30.19S WCI   3
LE MARS *      CLOUDY    16  12  86 NE6       30.27R WCI   7
ORANGE CITY *  CLOUDY    12   9  85 NE8       30.23R WCI   1
SHELDON *      CLOUDY    12   7  79 NE8       30.23R WCI   1
SIOUX CITY     CLOUDY    18  10  71 E7        30.24R WCI   9
SPENCER        CLOUDY    12   2  64 NE7       30.25R WCI   1
STORM LAKE *   CLOUDY    12   7  79 NE14      30.22R WCI  -3
$$

IAZ055>058-069>071-079>083-090>094-110800-
   SOUTHWEST IOWA

CITY           SKY/WX    TMP DP  RH WIND       PRES   REMARKS
ATLANTIC *     MOCLDY    16  12  86 NE14      30.19S WCI   1
AUDUBON *      CLEAR     10   7  85 NE8       30.19F WCI  -1
CLARINDA *     CLOUDY    23  19  86 NE9       30.21R WCI  13
COUNCIL BLFS * PTCLDY    16  14  93 NE8       30.18S WCI   5
CRESTON *      CLOUDY    18  14  86 NE12      30.19R WCI   5
HARLAN  *      CLEAR     14  10  85 NE15      30.22F WCI  -1
LAMONI         CLOUDY    20  15  81 NE9       30.18R WCI   9
RED OAK *      CLOUDY    21  18  86 NE8       30.19S WCI  12
SHENANDOAH *   MOCLDY    23  21  93 NE9       30.20R WCI  13
$$

IAZ047>049-059>061-072>074-084-110800-
   CENTRAL IOWA

CITY           SKY/WX    TMP DP  RH WIND       PRES   REMARKS
AMES           CLOUDY    11   1  64 NE8       30.24R WCI  -1
ANKENY *       CLOUDY    14   7  73 NE7       30.24S WCI   4
BOONE *        CLOUDY    10   1  67 NE10      30.21S WCI  -3
CHARITON *     CLOUDY    18  12  79 N13       30.19R WCI   4
DES MOINES     CLOUDY    14   5  67 NE9       30.22F WCI   2
GRINNELL*      PTCLDY    10   1  67 N7        30.23R WCI   0
KNOXVILLE *    CLOUDY    16   5  62 N9        30.20S WCI   4
MARSHALLTOWN   CLOUDY     4  -1  80 N7        30.23R WCI  -8
NEWTON *       CLOUDY    12   3  67 NE9       30.23R WCI   0
PELLA *        CLOUDY    16   9  73 N6        30.24S WCI   7
$$

IAZ004>006-015-016-023>025-035-036-110800-
   NORTH CENTRAL IOWA

CITY           SKY/WX    TMP DP  RH WIND       PRES   REMARKS
ALGONA *       CLOUDY    10   3  72 N9        30.23R WCI  -2
CLARION *      MOCLDY     0  -8  71 NE3       30.23F
ESTHERVILLE    CLOUDY    10   3  73 N12       30.23R WCI  -5
FORT DODGE *   CLOUDY     9   1  72 NE5       30.24R WCI   0
MASON CITY     CLOUDY     1  -5  75 N10       30.24S WCI -15
FOREST CITY *  CLEAR      5   0  78 N7        30.22F WCI  -7
WEBSTER CITY * CLOUDY     9   0  66 NE9       30.22R WCI  -5
IOWA FALLS *   MOCLDY     5   0  78 CALM      30.24S
$$

IAZ007>011-017>019-026>030-037>042-050>054-066-110800-
   NORTHEAST IOWA

CITY           SKY/WX    TMP DP  RH WIND       PRES   REMARKS
CEDAR RAPIDS   CLOUDY     8   2  76 N7        30.22R WCI  -3
CHARLES CITY * PTCLDY     3  -4  72 N6        30.24R WCI  -8
CLINTON *      CLOUDY    12   4  70 N6        30.22R WCI   3
DECORAH *      MOCLDY     7  -2  66 N8        30.22R WCI  -6
DUBUQUE        CLOUDY    10   0  63 N8        30.19R WCI  -2
MONTICELLO *   CLOUDY    10   1  67 N7        30.22R WCI   0
OELWEIN *      CLOUDY     7  -2  66 N7        30.23R WCI  -5
WATERLOO       CLOUDY     4  -4  69 N9        30.24S WCI -10
$$

IAZ064-065-067-068-078-110800-
   EAST CENTRAL IOWA

CITY           SKY/WX    TMP DP  RH WIND       PRES   REMARKS
DAVENPORT      CLEAR      7   1  76 NW5       30.22R WCI  -2
IOWA CITY      CLOUDY    12   2  64 N7        30.25R WCI   1
MT. PLEASANT * CLOUDY    18   9  68 N5        30.23R WCI  11
MUSCATINE *    CLEAR     12   5  73 N8        30.25R WCI   1
QUAD CITIES    CLEAR     12   2  64 N3        30.22R
$$

IAZ062-063-075>077-085>089-095>099-110800-
   SOUTHEAST IOWA

CITY           SKY/WX    TMP DP  RH WIND       PRES   REMARKS
BURLINGTON     CLOUDY    16   6  65 N9        30.21R WCI   4
FAIRFIELD *    CLOUDY    16   7  67 N9        30.23R WCI   4
FORT MADISON * CLOUDY    18  12  79 N6        30.21R WCI   9
KEOKUK *       CLOUDY    19  16  86 N5        30.20R WCI  13
OSKALOOSA *    CLOUDY    16   7  67 N13       30.23R WCI   2
CENTERVILLE *  CLOUDY    18  16  93 CALM      30.20R
OTTUMWA        CLOUDY    16   6  65 N12       30.21R WCI   3
WASHINGTON *   CLOUDY    14   7  73 N9        30.24R WCI   2
$$

ABBREVIATIONS USED IN REMARKS
   TC - TEMPERATURES IN CELSIUS
  WCI - WIND CHILL INDEX
   HX - HEAT INDEX
  VSB - VISIBILITY
$$




USA.gov is the U.S. government's official web portal to all federal, state and local government web resources and services.